Showing default

QIANFAN-105, 66047

Orbit data source: Space-Track

QIANFAN-105, 66047 is a Chinese payload satellite in LEO that was launched on Fri, 17 Oct 2025 UTC via a CHANG ZHENG 6A launch vehicle from the Taiyaun Space Center, China (TSC). Payload-class satellites include a variety of spacecraft equipped with specific instruments for various scientific and technological missions. These include communications satellites like Starlink; space stations such as the ISS; scientific satellites like the Hubble; Earth observation satellites from companies like Planet Labs, Umbra, and HawkEye 360; GPS; miniature CubeSats for education and research; and military/defense satellites.

Loading next visibility...
Identifier
66047, 2025-233Q
Orbit
LEO
Country
Flag of CNCN / PRC
Related business
Manufacturer
SECM
Mission
Operational Commercial Communications
Bus & Motor
QIANFAN, Unknown motor
Mass
267 kg wet, ~267 kg dry
Launch date (UTC)
2025-10-17 (8 months ago)
Launch vehicle
CHANG ZHENG 6A
Launch site
Taiyaun Space Center, China (TSC)
Object type
Payload
Rocket body
Debris
Shape & HBR
Box + 1 Pan, 14.5 m
Radar Cross Section
13.200 m², Large (>1 m²)

Expand to show TLE details & history
Last TLE update: 10 hours ago

TLE from 10 hours ago
0 QIANFAN-105
1 66047U 25233Q   26177.60101581  .00000096  00000-0  13059-3 0  9999
2 66047  89.0019  41.9935 0001896  87.8727 272.2642 13.51002692 34614
Epoch: 2026-06-26T14:25Z
TLE epoch observation values (Epoch: 2026-06-26T14:25:27.765Z)
Latitude
0.00003°
Longitude
-89.09937°
Altitude
1,071.469 km
Speed
7.316 km/s
True Right ascension
02h 47m 58s
True Declination
0° 00' 00"
Sunlit
Object was in daylight at epoch
Visualization orbit readout
Latitude
Unknown
Longitude
Unknown
Altitude
Unknown
Speed
Unknown
Apparent Right ascension
Unknown
Apparent Declination
Unknown
Sunlit
N/A
Visualization observer readout
Local Sidereal Time
12:09:34
Azimuth
Unknown
Elevation
Unknown
Doppler factor
Unknown
Orbital elements
Apogee altitude
1,067.034 km
Perigee altitude
1,064.211 km
Semi-major axis
7,443.76 km
Eccentricity
0.00019
Inclination
89.0019°
RAAN
41.9935°
Arg. of periapsis
87.8727°
True anomaly
272.24249°
Mean anomaly
272.2642°
Eccentric anomaly
272.25335°
Mean motion
3.37952 °/min
Orbital period
106.52 mins
BSTAR
0.00013059
Loading maneuver chart data...
Computing Atmospheric mass density...
Loading historical data...
Loading historical data...
Loading historical data...
Loading historical data...
Loading historical data...
Loading historical data...
Loading historical data...

Documentation

Showing up to 5 results
|